[[{"header":{"parameterUnit":"m.s-1","parameterCategory":2,"la1":30.2992,"la2":30.254,"lo1":-89.0895,"lo2":-89.0443,"dy":0.0025,"dx":0.0025,"nx":19,"ny":19,"refTime":"2026-05-11T09:00:00:Z","depth":"0","parameterNumber":2,"parameterNumberName":"U-component_of_CURRENTS"},"data":[0,0,0,-0.0594,-0.0592,-0.0509,-0.0509,-0.0427,-0.0427,0,0,0,0,0,0,0,0,0,0,0,-0.0634,-0.0634,-0.0594,-0.0592,-0.0509,-0.0508,-0.0427,-0.0427,0,0,0,0,0,0,0,0,0,0,0,-0.0634,-0.0634,-0.0634,-0.0591,-0.0509,-0.0508,-0.0428,-0.0484,0,0,0,0,0,0,0,0,0,0,-0.0562,-0.0613,-0.0634,-0.0634,-0.0591,-0.0509,-0.0508,-0.0487,-0.0481,-0.0472,0,-0.0465,0,-0.0438,-0.0422,-0.0421,0,0,0,-0.0593,-0.0618,-0.0576,-0.0634,-0.059,-0.0509,-0.0547,-0.0483,-0.0476,-0.0464,-0.0463,-0.0459,-0.0437,-0.0421,-0.0421,-0.0391,-0.0391,0,0,-0.0598,-0.0636,-0.058,-0.0572,-0.0576,-0.0549,-0.0544,-0.0479,-0.0488,-0.0463,-0.0457,-0.0435,-0.0421,-0.042,-0.0391,-0.0391,0,0,0,-0.061,-0.064,-0.0599,-0.0576,-0.0555,-0.0547,-0.0541,-0.0491,-0.0472,-0.0456,-0.0434,-0.042,-0.0419,-0.0391,-0.0391,-0.0438,0,0,0,-0.0613,-0.0646,-0.0601,-0.0625,-0.0556,-0.0522,-0.0555,-0.0477,-0.0468,-0.0435,-0.042,-0.0419,-0.039,-0.0391,-0.0436,-0.0459,0,0,0,-0.0637,-0.0649,-0.0637,-0.0627,-0.0587,-0.0522,-0.05,-0.0474,-0.0455,-0.0421,-0.0418,-0.039,-0.0391,-0.0435,-0.0456,-0.046,0,0,0,-0.0681,-0.0686,-0.0638,-0.0636,-0.0587,-0.0544,-0.05,-0.047,-0.0446,-0.042,-0.039,-0.0391,-0.0434,-0.0454,-0.0459,-0.0489,-0.0499,0,0,-0.071,-0.0691,-0.0686,-0.064,-0.0612,-0.0555,-0.0538,-0.0486,-0.0452,-0.0413,-0.0412,-0.0437,-0.0455,-0.046,-0.0521,-0.053,0,0,0,-0.0709,-0.0706,-0.069,-0.0661,-0.0612,-0.0578,-0.0521,-0.0499,-0.0464,-0.0438,-0.0435,-0.0445,-0.0446,-0.0462,-0.0469,-0.0513,-0.0393,-0.0393,-0.0393,-0.0827,-0.0766,-0.0755,-0.0684,-0.0657,-0.0593,-0.0571,-0.0529,-0.049,-0.0487,-0.0482,-0.0517,-0.0535,-0.054,-0.0586,-0.0479,-0.0479,-0.048,-0.048,-0.087,-0.0859,-0.079,-0.0753,-0.0701,-0.0678,-0.0612,-0.0583,-0.0551,-0.0523,-0.0521,-0.051,-0.055,-0.0596,-0.0483,-0.0482,-0.0482,-0.0482,-0.0481,-0.0946,-0.0928,-0.0886,-0.0825,-0.0791,-0.0725,-0.0697,-0.0646,-0.0599,-0.0597,-0.0589,-0.0588,-0.0628,-0.0589,-0.059,-0.059,-0.059,-0.059,-0.059,-0.1045,-0.0993,-0.0967,-0.0896,-0.0868,-0.0824,-0.0746,-0.0718,-0.0676,-0.0643,-0.0643,-0.0653,-0.055,-0.0544,-0.0592,-0.0592,-0.0591,-0.0591,-0.0591,-0.1125,-0.109,-0.1053,-0.102,-0.0938,-0.0904,-0.0834,-0.0784,-0.0749,-0.0741,-0.0747,-0.0659,-0.0642,-0.0636,-0.0632,-0.07,-0.07,-0.07,-0.07,-0.1194,-0.1168,-0.1113,-0.1063,-0.1012,-0.0938,-0.0914,-0.0856,-0.0823,-0.0821,-0.0817,-0.0815,-0.0808,-0.08,-0.079,-0.0789,-0.0895,-0.0895,-0.0895,-0.1243,-0.121,-0.1188,-0.1102,-0.1034,-0.0975,-0.095,-0.0924,-0.0898,-0.0907,-0.0877,-0.0868,-0.0865,-0.0851,-0.0835,-0.0818,-0.0814,0,0]},{"header":{"parameterUnit":"m.s-1","parameterCategory":2,"la1":30.2992,"la2":30.254,"lo1":-89.0895,"lo2":-89.0443,"dy":0.0025,"dx":0.0025,"nx":19,"ny":19,"refTime":"2026-05-11T09:00:00:Z","depth":"0","parameterNumber":3,"parameterNumberName":"V-component_of_CURRENTS"},"data":[0,0,0,-0.1863,-0.1863,-0.1873,-0.1873,-0.1836,-0.1835,0,0,0,0,0,0,0,0,0,0,0,-0.1858,-0.1858,-0.1863,-0.1863,-0.1873,-0.1873,-0.1836,-0.1835,0,0,0,0,0,0,0,0,0,0,0,-0.1858,-0.1858,-0.1858,-0.1863,-0.1873,-0.1873,-0.1836,-0.1839,0,0,0,0,0,0,0,0,0,0,-0.1834,-0.1821,-0.1858,-0.1858,-0.1863,-0.1873,-0.1873,-0.1839,-0.1838,-0.182,0,-0.1829,0,-0.1835,-0.1833,-0.1832,0,0,0,-0.1854,-0.1822,-0.1846,-0.1859,-0.1864,-0.1873,-0.1866,-0.1839,-0.1838,-0.1819,-0.1829,-0.1828,-0.1834,-0.1832,-0.1832,-0.1815,-0.1815,0,0,-0.1853,-0.1836,-0.1847,-0.1846,-0.1875,-0.1866,-0.1866,-0.1839,-0.1828,-0.1829,-0.1827,-0.1834,-0.1832,-0.1832,-0.1815,-0.1815,0,0,0,-0.1858,-0.1835,-0.186,-0.1847,-0.1855,-0.1866,-0.1867,-0.1829,-0.1843,-0.1827,-0.1833,-0.1832,-0.1831,-0.1815,-0.1815,-0.1818,0,0,0,-0.1857,-0.1839,-0.186,-0.1846,-0.1856,-0.1844,-0.1857,-0.1845,-0.1843,-0.1833,-0.1832,-0.1831,-0.1814,-0.1815,-0.1817,-0.1807,0,0,0,-0.1856,-0.1838,-0.1847,-0.1846,-0.1857,-0.1845,-0.1857,-0.1845,-0.1846,-0.1832,-0.1831,-0.1814,-0.1815,-0.1817,-0.1807,-0.18,0,0,0,-0.1826,-0.1826,-0.1847,-0.1845,-0.1857,-0.1866,-0.1857,-0.1848,-0.1837,-0.1832,-0.1814,-0.1815,-0.1817,-0.1807,-0.18,-0.1815,-0.1816,0,0,-0.181,-0.1822,-0.1824,-0.1844,-0.1853,-0.1864,-0.1858,-0.184,-0.1835,-0.1818,-0.1818,-0.1817,-0.1807,-0.18,-0.1832,-0.1832,0,0,0,-0.1809,-0.1813,-0.1818,-0.1829,-0.1846,-0.1853,-0.1846,-0.1845,-0.1836,-0.1833,-0.1823,-0.1816,-0.1811,-0.1821,-0.1821,-0.1842,-0.1816,-0.1816,-0.1816,-0.1735,-0.1772,-0.1777,-0.182,-0.1826,-0.1839,-0.1841,-0.1839,-0.1834,-0.1836,-0.1822,-0.1823,-0.1835,-0.1835,-0.1857,-0.1833,-0.1833,-0.1833,-0.1833,-0.1714,-0.1728,-0.1762,-0.1787,-0.1811,-0.1812,-0.1828,-0.1832,-0.1827,-0.183,-0.1826,-0.1829,-0.1836,-0.1859,-0.1834,-0.1834,-0.1834,-0.1834,-0.1834,-0.1674,-0.1692,-0.1717,-0.176,-0.1775,-0.18,-0.1811,-0.1818,-0.182,-0.1819,-0.1824,-0.1824,-0.1839,-0.1817,-0.1817,-0.1817,-0.1817,-0.1816,-0.1816,-0.1631,-0.1662,-0.1696,-0.1736,-0.1759,-0.1781,-0.1799,-0.1809,-0.1817,-0.182,-0.182,-0.1846,-0.1818,-0.1813,-0.1815,-0.1816,-0.1816,-0.1816,-0.1816,-0.1618,-0.1635,-0.1687,-0.1718,-0.1775,-0.1813,-0.1815,-0.1839,-0.1832,-0.1841,-0.1853,-0.1823,-0.1819,-0.1819,-0.1814,-0.1817,-0.1817,-0.1817,-0.1817,-0.1605,-0.1618,-0.1702,-0.1755,-0.1798,-0.1835,-0.1894,-0.1916,-0.1903,-0.1894,-0.1866,-0.1883,-0.1882,-0.1883,-0.1882,-0.1878,-0.1897,-0.1897,-0.1897,-0.1614,-0.1642,-0.1701,-0.1766,-0.1819,-0.1876,-0.1955,-0.2021,-0.1975,-0.1902,-0.1892,-0.1888,-0.1916,-0.1912,-0.1915,-0.1911,-0.1906,0,0]}],[{"header":{"parameterUnit":"m.s-1","parameterCategory":2,"la1":30.2992,"la2":30.254,"lo1":-89.0895,"lo2":-89.0443,"dy":0.0025,"dx":0.0025,"nx":19,"ny":19,"refTime":"2026-05-11T09:00:00:Z","depth":"2","parameterNumber":2,"parameterNumberName":"U-component_of_CURRENTS"},"data":[0,0,0,0.0265,0.0264,0.0221,0.022,0.019,0.019,0,0,0,0,0,0,0,0,0,0,0,0.0279,0.0279,0.0265,0.0264,0.0221,0.022,0.019,0.019,0,0,0,0,0,0,0,0,0,0,0,0.0279,0.0279,0.0279,0.0264,0.0221,0.022,0.019,0.0215,0,0,0,0,0,0,0,0,0,0,0.0253,0.0263,0.0279,0.0279,0.0264,0.0221,0.022,0.0215,0.0213,0.0219,0,0.0216,0,0.0206,0.0189,0.0189,0,0,0,0.0256,0.0265,0.0257,0.0279,0.0263,0.0221,0.0238,0.0214,0.0211,0.0216,0.0215,0.0214,0.0206,0.0189,0.0189,0.0152,0.0152,0,0,0.0259,0.0267,0.0259,0.0256,0.0258,0.024,0.0237,0.0212,0.021,0.0215,0.0213,0.0205,0.0189,0.0189,0.0153,0.0152,0,0,0,0.0271,0.0269,0.026,0.0257,0.025,0.0239,0.0235,0.0211,0.0209,0.0213,0.0205,0.0189,0.0189,0.0153,0.0153,0.0115,0,0,0,0.0272,0.0276,0.0262,0.0265,0.025,0.0226,0.0235,0.0211,0.0208,0.0205,0.0189,0.0188,0.0153,0.0153,0.0117,0.01,0,0,0,0.028,0.0277,0.0274,0.0266,0.0251,0.0226,0.0222,0.021,0.0204,0.0189,0.0188,0.0154,0.0153,0.0118,0.0103,0.0073,0,0,0,0.0286,0.0267,0.0274,0.0255,0.0251,0.0219,0.0222,0.0192,0.0177,0.0189,0.0153,0.0153,0.0119,0.0104,0.0075,0.002,0.0007,0,0,0.0261,0.0264,0.0253,0.0259,0.0227,0.0224,0.0184,0.0165,0.0169,0.0163,0.0162,0.0116,0.0103,0.0074,-0.0023,-0.0035,0,0,0,0.0245,0.0233,0.0227,0.0213,0.0201,0.0173,0.0157,0.0149,0.0123,0.0158,0.0112,0.0104,0.0087,0.0057,0.0048,0.0149,0.0149,0.0149,0.0149,0.0193,0.0198,0.0174,0.017,0.0155,0.0132,0.0108,0.0094,0.0103,0.0082,0.007,0.0018,-0.0015,-0.0022,0.0067,0.0067,0.0067,0.0066,0.0066,0.014,0.012,0.0133,0.0106,0.0097,0.0064,0.005,0.0044,0.0012,0.0032,0.0017,0.0015,-0.0035,0.0063,0.0064,0.0064,0.0065,0.0065,0.0065,0.0089,0.0082,0.0072,0.0046,0.002,0.0011,-0.0026,-0.003,-0.0028,-0.0046,-0.0082,-0.0082,-0.0004,-0.006,-0.006,-0.006,-0.0061,-0.0061,-0.0061,0.0033,0.003,-0.0002,-0.0018,-0.0034,-0.0057,-0.0081,-0.0101,-0.0131,-0.0131,-0.0132,-0.0025,-0.0021,-0.0012,-0.0064,-0.0064,-0.0063,-0.0063,-0.0063,-0.0037,-0.0037,-0.008,-0.0099,-0.0116,-0.0146,-0.0156,-0.0222,-0.0238,-0.0264,-0.0179,-0.0175,-0.0169,-0.0161,-0.0156,-0.0243,-0.0243,-0.0243,-0.0243,-0.0086,-0.0087,-0.0143,-0.0168,-0.018,-0.0187,-0.0319,-0.0431,-0.0419,-0.0422,-0.0414,-0.0406,-0.0394,-0.0399,-0.0386,-0.0384,-0.0531,-0.0531,-0.0532,-0.013,-0.014,-0.0188,-0.0203,-0.0204,-0.0237,-0.0419,-0.0628,-0.0624,-0.0545,-0.0483,-0.0258,-0.0222,-0.0213,-0.0199,-0.0187,-0.0175,0,0]},{"header":{"parameterUnit":"m.s-1","parameterCategory":2,"la1":30.2992,"la2":30.254,"lo1":-89.0895,"lo2":-89.0443,"dy":0.0025,"dx":0.0025,"nx":19,"ny":19,"refTime":"2026-05-11T09:00:00:Z","depth":"2","parameterNumber":3,"parameterNumberName":"V-component_of_CURRENTS"},"data":[0,0,0,0.0034,0.0034,0.0005,0.0005,0.0028,0.0028,0,0,0,0,0,0,0,0,0,0,0,0.0035,0.0034,0.0035,0.0034,0.0005,0.0005,0.0028,0.0028,0,0,0,0,0,0,0,0,0,0,0,0.0035,0.0034,0.0033,0.0033,0.0005,0.0005,0.0028,0.0036,0,0,0,0,0,0,0,0,0,0,0.0057,0.0035,0.0034,0.0033,0.0033,0.0005,0.0005,0.0036,0.0035,0.0057,0,0.0038,0,0.0037,0.0031,0.0031,0,0,0,0.0038,0.0035,0.0039,0.0033,0.0033,0.0005,0.0019,0.0035,0.0035,0.0057,0.0038,0.0039,0.0037,0.0031,0.0031,0.0041,0.0041,0,0,0.004,0.0024,0.0039,0.0039,0.0008,0.002,0.0018,0.0034,0.0021,0.0038,0.0039,0.0038,0.0031,0.0032,0.0041,0.0041,0,0,0,0.0041,0.0024,0.0027,0.0038,0.0029,0.0019,0.0017,0.002,0.0023,0.0039,0.0038,0.0032,0.0032,0.0042,0.0041,0.0004,0,0,0,0.0043,0.0025,0.0027,0.0016,0.0028,0.0014,0.0002,0.0022,0.0024,0.0038,0.0032,0.0032,0.0042,0.0041,0.0005,-0.0003,0,0,0,0.0039,0.0025,0.0019,0.0015,0.0003,0.0013,0.0017,0.0022,0.0024,0.0031,0.0032,0.0042,0.0042,0.0006,-0.0001,-0.002,0,0,0,0.0029,0.0021,0.0017,0.001,0.0003,0.0014,0.0017,0.0012,0.0015,0.0032,0.0042,0.0041,0.0007,-0.0,-0.0019,0.002,0.0017,0,0,0.0025,0.002,0.0021,0.0018,0.0025,0.0019,0.0018,0.0013,0.0018,0.0042,0.0042,0.0005,-0.0001,-0.002,-0.0003,-0.0006,0,0,0,0.0026,0.0021,0.0024,0.0019,0.0027,0.0014,0.0014,0.0011,-0.0002,0.0017,0.0007,0.0005,-0.0006,0.002,0.0018,0.0039,0.004,0.004,0.004,-0.002,0.0003,0.0006,0.0023,0.002,0.001,0.0,-0.0007,-0.0,-0.0022,-0.0025,-0.0061,-0.0034,-0.0035,-0.0026,-0.0027,-0.0027,-0.0027,-0.0027,-0.0022,-0.0022,-0.0007,0.0001,-0.0009,-0.0021,-0.0024,-0.0039,-0.0056,-0.0048,-0.0058,-0.0019,-0.0039,-0.003,-0.0029,-0.0029,-0.0029,-0.0028,-0.0028,-0.0057,-0.005,-0.0045,-0.0035,-0.0053,-0.0058,-0.0075,-0.0087,-0.0093,-0.0106,-0.0081,-0.008,-0.0082,-0.0123,-0.0123,-0.0124,-0.0124,-0.0124,-0.0124,-0.0102,-0.0084,-0.0086,-0.0071,-0.0077,-0.0097,-0.0115,-0.0115,-0.0115,-0.0112,-0.0111,-0.0093,-0.009,-0.0087,-0.0126,-0.0125,-0.0125,-0.0125,-0.0125,-0.0138,-0.0139,-0.0129,-0.0127,-0.0107,-0.0131,-0.0129,-0.0128,-0.0126,-0.0113,-0.0108,-0.0107,-0.0089,-0.0086,-0.0083,-0.0118,-0.0118,-0.0118,-0.0118,-0.0181,-0.0171,-0.0169,-0.0147,-0.0125,-0.014,-0.0185,-0.0129,-0.0069,0.0009,0.0004,0.0041,0.0038,0.0065,0.0065,0.0073,0.0077,0.0078,0.0078,-0.0206,-0.0201,-0.0209,-0.0171,-0.0129,-0.0165,-0.0252,-0.0113,0.0173,0.0089,0.0066,-0.011,-0.007,-0.007,-0.0037,-0.0034,-0.0025,0,0]}],[{"header":{"parameterUnit":"m.s-1","parameterCategory":2,"la1":30.2992,"la2":30.254,"lo1":-89.0895,"lo2":-89.0443,"dy":0.0025,"dx":0.0025,"nx":19,"ny":19,"refTime":"2026-05-11T09:00:00:Z","depth":"4","parameterNumber":2,"parameterNumberName":"U-component_of_CURRENTS"},"data":[0,0,0,-0.0556,-0.0561,-0.0784,-0.0785,-0.1054,-0.1056,0,0,0,0,0,0,0,0,0,0,0,-0.049,-0.0492,-0.0556,-0.0561,-0.0784,-0.0786,-0.1053,-0.1056,0,0,0,0,0,0,0,0,0,0,0,-0.0489,-0.0491,-0.0494,-0.0562,-0.0784,-0.0786,-0.1053,-0.0891,0,0,0,0,0,0,0,0,0,0,-0.0677,-0.0621,-0.0491,-0.0494,-0.0563,-0.0784,-0.0786,-0.0883,-0.0901,-0.0944,0,-0.0989,0,-0.1021,-0.1072,-0.1073,0,0,0,-0.0571,-0.0606,-0.0658,-0.0494,-0.0565,-0.0784,-0.0686,-0.0893,-0.0913,-0.0967,-0.0992,-0.1003,-0.1025,-0.1074,-0.1075,-0.1188,-0.1187,0,0,-0.0558,-0.054,-0.0644,-0.0671,-0.0637,-0.0679,-0.0693,-0.0906,-0.0937,-0.0993,-0.1009,-0.103,-0.1076,-0.1078,-0.1188,-0.1188,0,0,0,-0.0516,-0.0531,-0.0579,-0.0659,-0.0698,-0.0685,-0.0702,-0.0928,-0.0942,-0.1012,-0.1033,-0.1077,-0.108,-0.1189,-0.1188,-0.1038,0,0,0,-0.0509,-0.0506,-0.0573,-0.0566,-0.0694,-0.0819,-0.0719,-0.0927,-0.0952,-0.1031,-0.1077,-0.1083,-0.119,-0.1188,-0.1044,-0.1009,0,0,0,-0.0477,-0.0503,-0.053,-0.0564,-0.0654,-0.0816,-0.0844,-0.0934,-0.0964,-0.1073,-0.1083,-0.119,-0.1189,-0.1048,-0.1017,-0.1,0,0,0,-0.0447,-0.0495,-0.0531,-0.0601,-0.0652,-0.0774,-0.0843,-0.0936,-0.1021,-0.1078,-0.119,-0.1188,-0.105,-0.1022,-0.1005,-0.0924,0,0,0,-0.0479,-0.0499,-0.0538,-0.0574,-0.0653,-0.0743,-0.0834,-0.0956,-0.1009,-0.1123,-0.1126,-0.1042,-0.1018,-0.1001,-0.0837,0,0,0,0,-0.0528,-0.0543,-0.058,-0.0642,-0.0738,-0.0798,-0.0927,-0.0948,-0.0981,-0.1053,-0.1053,-0.1044,-0.1038,-0.1004,-0.1181,-0.1181,-0.1181,-0.1181,-0.1181,-0.0453,-0.052,-0.0577,-0.0662,-0.0739,-0.0841,-0.0872,-0.092,-0.0979,-0.0927,-0.0928,-0.0827,-0.0781,-0.0923,-0.0922,-0.0921,-0.0921,-0.092,-0.092,-0.0435,-0.046,-0.0548,-0.0607,-0.0679,-0.0739,-0.0818,-0.0812,-0.08,-0.0827,-0.0827,-0.0855,-0.0905,-0.0908,-0.091,-0.0912,-0.0913,-0.0914,-0.0915,-0.0339,-0.0373,-0.0409,-0.0492,-0.0534,-0.0626,-0.0619,-0.066,-0.067,-0.0639,-0.0635,-0.0756,-0.0765,-0.0621,-0.0621,-0.062,-0.062,-0.062,-0.062,-0.0219,-0.0283,-0.0294,-0.0377,-0.0391,-0.0408,-0.0481,-0.0456,-0.0493,-0.0488,-0.0593,-0.0728,-0.0738,-0.0751,-0.0616,-0.0616,-0.0617,-0.0617,-0.0618,-0.0149,-0.015,-0.0176,-0.0188,-0.0232,-0.0262,-0.0333,-0.0317,-0.0291,-0.0261,-0.0438,-0.0448,-0.0515,-0.0531,-0.054,-0.0337,-0.0336,-0.0334,0,-0.0066,-0.0085,-0.0099,-0.0113,-0.0103,-0.0188,-0.0127,-0.0122,-0.0198,-0.0239,-0.0265,-0.0467,-0.0475,-0.0556,-0.0567,-0.0577,0,0,0,-0.0029,-0.0041,-0.0031,-0.0061,-0.0065,-0.0075,-0.0111,-0.0107,-0.0232,-0.0122,-0.0296,-0.0306,-0.0371,-0.0603,-0.0734,-0.0745,-0.0774,0,0]},{"header":{"parameterUnit":"m.s-1","parameterCategory":2,"la1":30.2992,"la2":30.254,"lo1":-89.0895,"lo2":-89.0443,"dy":0.0025,"dx":0.0025,"nx":19,"ny":19,"refTime":"2026-05-11T09:00:00:Z","depth":"4","parameterNumber":3,"parameterNumberName":"V-component_of_CURRENTS"},"data":[0,0,0,0.0084,0.0085,0.0143,0.0144,0.0242,0.0243,0,0,0,0,0,0,0,0,0,0,0,0.0098,0.0099,0.0083,0.0085,0.0143,0.0144,0.0242,0.0243,0,0,0,0,0,0,0,0,0,0,0,0.0097,0.0099,0.01,0.0085,0.0143,0.0144,0.0241,0.0193,0,0,0,0,0,0,0,0,0,0,0.0134,0.0161,0.0098,0.01,0.0085,0.0143,0.0144,0.0191,0.0196,0.022,0,0.0254,0,0.0234,0.0249,0.0249,0,0,0,0.0092,0.0157,0.0146,0.01,0.0086,0.0143,0.0119,0.0194,0.02,0.0227,0.0255,0.0257,0.0235,0.025,0.025,0.0265,0.0265,0,0,0.0089,0.0128,0.0142,0.0151,0.0134,0.0117,0.0121,0.0197,0.0234,0.0255,0.0259,0.0237,0.025,0.0251,0.0266,0.0265,0,0,0,0.0075,0.0127,0.0115,0.0149,0.0148,0.0118,0.0123,0.0232,0.0222,0.0259,0.0238,0.0251,0.0252,0.0266,0.0266,0.0215,0,0,0,0.0073,0.0116,0.0114,0.0141,0.0147,0.0191,0.0156,0.0217,0.0224,0.0237,0.0251,0.0253,0.0267,0.0266,0.0218,0.0212,0,0,0,0.0089,0.0118,0.0129,0.0142,0.0156,0.0188,0.0184,0.0218,0.021,0.0249,0.0253,0.0267,0.0266,0.022,0.0215,0.0213,0,0,0,0.0118,0.0119,0.0132,0.0105,0.0156,0.0084,0.0183,0.0185,0.0211,0.0251,0.0267,0.0266,0.0221,0.0217,0.0215,0.0176,0,0,0,0.0109,0.0121,0.0084,0.0092,-0.0009,0.0074,0.0015,0.0124,0.02,0.0247,0.0247,0.0217,0.0215,0.0214,0.0098,0,0,0,0,0.0066,0.0055,0.002,-0.002,-0.0063,-0.0057,0.0015,0.0065,0.0157,0.0209,0.0204,0.0205,0.0206,0.0187,0.0259,0.0259,0.026,0.026,0.026,0.012,0.0033,-0.0041,-0.0127,-0.0152,-0.0137,-0.0109,-0.0016,0.0064,0.0107,0.0153,0.0105,0.0079,0.0134,0.0134,0.0133,0.0133,0.0133,0.0133,0.0055,-0.0003,-0.0082,-0.0163,-0.0186,-0.0186,-0.016,-0.008,0.0005,0.0075,0.0078,0.0121,0.0128,0.0129,0.0129,0.013,0.013,0.0131,0.0131,0.0079,0.0036,-0.0,-0.0111,-0.0143,-0.0155,-0.0182,-0.0098,-0.0008,-0.0001,0.0033,0.0082,0.01,0.0036,0.0036,0.0036,0.0036,0.0036,0.0036,0.0137,0.007,0.0041,-0.0062,-0.01,-0.0132,-0.0145,-0.0159,-0.0082,-0.0018,0.0027,0.0073,0.0077,0.0095,0.0035,0.0035,0.0035,0.0035,0.0035,0.0127,0.0153,0.0083,0.0041,-0.0111,-0.0174,-0.0209,-0.0219,-0.0209,-0.0181,-0.0038,-0.0034,-0.0009,-0.0003,0.0014,-0.0073,-0.0074,-0.0074,0,0.0164,0.0149,0.0096,-0.0003,-0.0131,-0.0225,-0.0283,-0.0311,-0.0206,-0.0131,-0.0202,-0.0038,-0.0035,-0.0006,-0.0002,0.0017,0,0,0,0.0143,0.014,0.0107,0.0011,-0.0152,-0.0255,-0.0297,-0.027,-0.0184,-0.0273,-0.0092,-0.0087,-0.0201,0.0032,0.0081,0.0085,0.0119,0,0]}]]